CAPE
0 0 127 160 268 664 952 1193 1286 1287 1139 1012 987 845 1337 1471 1472 1462 1255 1167 1169 992 897 1141 1069 500 778 964 1041 880 862 791 729 614 632 678 696 680 639 590 796 740 822
0 0 148 229 320 571 1091 1192 1246 1175 1009 1008 995 982 943 1054 1325 1324 1293 1357 953 921 935 1033 775 677 1102 1017 960 859 859 668 540 514 481 574 756 777 605 434 678 804 799
0 0 139 230 321 460 885 1121 1190 1008 971 862 661 455 456 500 519 468 502 1145 1229 1046 952 962 967 1012 959 927 840 757 794 706 544 480 619 712 812 912 653 730 751 677 615
0 0 17 182 265 382 635 835 1054 965 765 713 466 500 628 383 109 10 92 474 699 781 863 896 909 848 815 684 694 732 752 597 442 406 551 601 694 850 845 781 803 808 701
0 0 1 148 214 315 464 720 860 907 730 753 527 564 633 353 105 236 169 359 472 561 627 514 591 564 687 629 621 676 538 394 271 398 546 689 644 680 771 816 788 702 573
0 0 0 37 81 259 289 436 742 827 786 776 610 562 627 253 173 146 49 73 215 373 402 348 345 53 0 62 174 215 290 214 280 540 522 441 572 622 686 735 618 588 537
0 0 0 0 72 147 157 197 413 743 787 632 541 402 574 497 191 26 142 159 394 507 642 554 398 371 74 67 362 254 182 133 213 266 344 415 387 561 508 468 393 374 393
0 0 0 2 60 87 168 339 573 641 546 612 427 330 326 455 208 304 222 263 572 504 564 376 142 86 117 210 155 79 65 87 121 171 326 276 278 351 355 296 280 256 247
0 0 6 14 333 227 8 2 22 203 456 453 189 165 157 204 25 66 139 175 378 252 277 178 139 158 176 128 35 10 18 18 45 109 177 214 280 349 242 159 146 81 20
0 0 0 0 1 1 0 0 107 252 253 39 0 0 11 4 0 7 25 115 350 180 203 234 208 119 70 6 0 0 0 1 5 6 123 158 254 156 36 11 5 16 15
0 0 0 0 0 0 3 66 24 11 1 0 1 0 0 0 0 9 33 94 105 280 305 185 100 16 5 1 0 0 0 0 0 0 18 10 22 15 9 7 9 12 12
0 0 0 0 0 0 4 1 0 0 0 1 1 1 1 0 0 0 0 0 1 25 91 41 6 0 0 0 0 0 0 0 0 0 10 6 7 6 3 2 2 2 1
1 0 0 0 0 0 0 0 0 1 0 0 0 2 0 1 0 0 0 0 0 0 0 0 0 0 0 0 0 0 0 0 0 12 13 13 20 16 8 7 3 7 5
1 0 0 0 0 0 0 0 0 0 0 0 0 1 0 0 0 0 0 0 0 0 0 0 0 0 0 0 0 0 0 0 0 0 6 10 22 23 16 8 6 2 6
1 0 0 0 0 0 0 0 0 1 0 0 0 0 0 0 0 0 0 0 0 0 0 0 0 0 0 0 0 0 0 0 0 0 0 1 7 11 15 8 7 5 4
1 0 0 0 0 0 0 0 0 0 0 0 0 0 0 0 0 0 0 0 0 0 0 0 0 0 0 0 0 0 0 0 0 0 0 0 1 5 6 4 3 6 3
0 0 0 0 0 0 0 0 0 0 0 0 0 0 0 0 0 0 0 0 0 0 0 0 0 0 0 0 0 0 0 0 0 0 0 0 0 0 2 5 5 5 4
1 1 1 0 0 0 0 0 0 0 0 0 0 0 0 0 0 0 0 0 0 0 0 0 0 0 0 0 0 0 0 0 0 0 0 0 0 0 0 1 5 7 6
1 0 0 2 1 0 0 0 0 0 0 0 0 0 0 0 0 0 0 0 0 0 0 0 0 0 0 0 0 0 0 0 0 0 0 0 0 0 0 0 0 0 1
0 1 1 1 2 1 0 0 0 0 0 0 0 0 0 0 0 0 0 0 0 0 0 0 0 0 0 0 0 0 0 0 0 0 0 0 0 0 0 0 0 0 0
0 1 0 1 2 0 0 0 0 0 0 0 0 0 0 0 0 0 0 0 0 0 0 0 0 0 0 0 0 0 0 0 0 0 0 0 0 0 0 0 0 0 0
3 3 2 1 1 1 0 0 0 0 0 0 0 0 0 0 0 0 0 0 0 0 0 0 0 0 0 0 0 0 0 0 0 0 0 0 0 0 0 0 0 0 0
1 10 4 1 1 1 1 0 0 0 0 0 0 0 0 0 0 0 0 0 0 0 0 0 0 0 0 0 0 0 0 0 0 0 0 0 0 0 0 0 0 0 0
3 0 0 0 2 1 0 0 0 0 0 0 0 0 0 0 0 0 0 0 0 0 0 0 0 0 0 0 0 0 0 0 0 0 0 0 0 0 0 0 0 0 0
4 3 0 0 2 0 1 0 0 0 0 0 0 0 0 0 0 0 0 0 0 0 0 0 0 0 0 0 0 0 0 0 0 0 0 0 0 0 0 0 0 0 0
3 5 3 1 1 0 1 0 1 0 0 0 0 0 0 0 0 0 0 0 0 0 0 0 0 0 0 0 0 0 0 0 0 0 0 0 0 0 0 0 0 0 0
CIN
-0 -0 -223 -189 -149 -76 -33 -9 -1 -0 -0 -0 -0 -4 -0 -0 -0 -0 -1 -2 -2 -7 -4 -0 -0 -5 -0 -0 -0 -0 -0 -0 -0 -1 -1 -0 -0 -0 -0 -2 -1 -0 -0
-0 -0 -208 -165 -134 -76 -19 -6 -0 -0 -1 -0 -0 -0 -4 -2 -0 -0 -0 -0 -6 -6 -2 -0 -0 -0 -0 -0 -0 -0 -0 -0 -1 -3 -7 -6 -1 -0 -0 -6 -4 -0 -0
-0 -0 -206 -160 -124 -80 -18 -3 -1 -5 -4 -2 -4 -11 -6 -23 -32 -18 -5 -1 -1 -3 -2 -1 -0 -0 -0 -0 -0 -2 -0 -0 -5 -8 -3 -0 -0 -0 -8 -5 -1 -0 -0
-0 -0 -299 -170 -124 -82 -26 -11 -0 -1 -6 -8 -9 -6 -5 -43 -90 -78 -63 -5 -5 -5 -4 -2 -1 -0 -0 -0 -0 -0 -0 -2 -8 -15 -0 -0 -0 -0 -0 -0 -0 -0 -0
-0 -0 -254 -169 -123 -74 -37 -5 -0 -0 -2 -4 -8 -4 -3 -48 -100 -73 -63 -24 -2 -5 -7 -5 -2 -0 -0 -0 -0 -0 -3 -7 -19 -5 -0 -0 -0 -0 -0 -0 -0 -0 -0
-0 -0 -0 -204 -155 -84 -57 -14 -0 -0 -0 -1 -4 -3 -0 -43 -54 -81 -80 -72 -35 -5 -12 -8 -96 -21 -0 -40 -11 -5 -72 -24 -14 -0 -0 -1 -0 -0 -0 -0 -1 -0 -0
-0 -0 -0 -0 -157 -117 -84 -61 -10 -0 -0 -3 -5 -5 -0 -2 -32 -86 -36 -27 -3 -0 -2 -0 -0 -0 -24 -9 -0 -12 -26 -28 -15 -0 -1 -0 -0 -0 -0 -0 -0 -0 -0
-0 -0 -0 -33 -165 -120 -60 -28 -2 -0 -0 -0 -5 -5 -3 -3 -9 -2 -6 -3 -5 -0 -0 -1 -15 -17 -6 -0 -8 -40 -60 -41 -28 -12 -5 -1 -2 -0 -0 -0 -0 -0 -0
-0 -0 -243 -277 -56 -65 -45 -54 -228 -28 -0 -1 -5 -20 -10 -3 -43 -35 -3 -4 -1 -10 -7 -25 -1 -1 -0 -2 -23 -61 -94 -95 -55 -18 -6 -2 -1 -0 -0 -0 -1 -8 -2
-0 -0 -0 -0 -9 -5 -0 -3 -80 -11 -2 -40 -0 -0 -159 -63 -0 -69 -52 -0 -3 -4 -0 -0 -0 -0 -41 -0 -0 -0 -0 -96 -82 -45 -5 -2 -0 -0 -20 -8 -1 -0 -0
-0 -0 -0 -0 -0 -0 -79 -95 -99 -73 -0 -0 -0 -0 -0 -0 -0 -145 -2 -12 -3 -0 -0 -0 -0 -19 -37 -0 -0 -0 -0 -0 -0 -0 -1 -3 -0 -1 -0 -0 -0 -0 -0
-0 -0 -0 -0 -0 -0 -16 -12 -0 -0 -0 -0 -0 -0 -0 -0 -0 -0 -0 -0 -0 -0 -3 -8 -24 -0 -0 -0 -0 -0 -0 -0 -0 -0 -2 -4 -0 -0 -0 -0 -0 -0 -0
-0 -0 -0 -0 -0 -0 -0 -0 -0 -0 -0 -0 -0 -0 -0 -0 -0 -0 -0 -0 -0 -0 -0 -0 -0 -0 -0 -0 -0 -0 -0 -0 -0 -0 -6 -1 -0 -0 -0 -1 -0 -0 -0
-0 -0 -0 -0 -0 -0 -0 -0 -0 -0 -0 -0 -0 -0 -0 -0 -0 -0 -0 -0 -0 -0 -0 -0 -0 -0 -0 -0 -0 -0 -0 -0 -0 -0 -18 -5 -0 -0 -0 -1 -1 -0 -0
-0 -0 -0 -0 -0 -0 -0 -0 -0 -0 -0 -0 -0 -0 -0 -0 -0 -0 -0 -0 -0 -0 -0 -0 -0 -0 -0 -0 -0 -0 -0 -0 -0 -0 -0 -25 -5 -1 -0 -0 -0 -0 -0
-0 -0 -0 -0 -0 -0 -0 -0 -0 -0 -0 -0 -0 -0 -0 -0 -0 -0 -0 -0 -0 -0 -0 -0 -0 -0 -0 -0 -0 -0 -0 -0 -0 -0 -0 -0 -13 -4 -0 -1 -1 -0 -0
-0 -0 -0 -0 -0 -0 -0 -0 -0 -0 -0 -0 -0 -0 -0 -0 -0 -0 -0 -0 -0 -0 -0 -0 -0 -0 -0 -0 -0 -0 -0 -0 -0 -0 -0 -0 -0 -1 -0 -1 -0 -0 -0
-0 -0 -0 -0 -0 -0 -0 -0 -0 -0 -0 -0 -0 -0 -0 -0 -0 -0 -0 -0 -0 -0 -0 -0 -0 -0 -0 -0 -0 -0 -0 -0 -0 -0 -0 -0 -0 -0 -0 -0 -0 -0 -1
-0 -0 -0 -0 -0 -0 -0 -0 -0 -0 -0 -0 -0 -0 -0 -0 -0 -0 -0 -0 -0 -0 -0 -0 -0 -0 -0 -0 -0 -0 -0 -0 -0 -0 -0 -0 -0 -0 -0 -0 -0 -0 -0
-0 -0 -0 -0 -0 -0 -0 -0 -0 -0 -0 -0 -0 -0 -0 -0 -0 -0 -0 -0 -0 -0 -0 -0 -0 -0 -0 -0 -0 -0 -0 -0 -0 -0 -0 -0 -0 -0 -0 -0 -0 -0 -0
-0 -0 -0 -0 -0 -0 -0 -0 -0 -0 -0 -0 -0 -0 -0 -0 -0 -0 -0 -0 -0 -0 -0 -0 -0 -0 -0 -0 -0 -0 -0 -0 -0 -0 -0 -0 -0 -0 -0 -0 -0 -0 -0
-1 -0 -3 -0 -0 -0 -0 -0 -0 -0 -0 -0 -0 -0 -0 -0 -0 -0 -0 -0 -0 -0 -0 -0 -0 -0 -0 -0 -0 -0 -0 -0 -0 -0 -0 -0 -0 -0 -0 -0 -0 -0 -0
-0 -2 -3 -0 -0 -0 -0 -0 -0 -0 -0 -0 -0 -0 -0 -0 -0 -0 -0 -0 -0 -0 -0 -0 -0 -0 -0 -0 -0 -0 -0 -0 -0 -0 -0 -0 -0 -0 -0 -0 -0 -0 -0
-0 -0 -0 -0 -0 -0 -0 -0 -0 -0 -0 -0 -0 -0 -0 -0 -0 -0 -0 -0 -0 -0 -0 -0 -0 -0 -0 -0 -0 -0 -0 -0 -0 -0 -0 -0 -0 -0 -0 -0 -0 -0 -0
-0 -0 -0 -1 -0 -0 -0 -0 -0 -0 -0 -0 -0 -0 -0 -0 -0 -0 -0 -0 -0 -0 -0 -0 -0 -0 -0 -0 -0 -0 -0 -0 -0 -0 -0 -0 -0 -0 -0 -0 -0 -0 -0
-0 -0 -0 -0 -0 -0 -0 -0 -0 -0 -0 -0 -0 -0 -0 -0 -0 -0 -0 -0 -0 -0 -0 -0 -0 -0 -0 -0 -0 -0 -0 -0 -0 -0 -0 -0 -0 -0 -0 -0 -0 -0 -0
Wind_Speed
5 6 8 7 7 7 6 5 5 6 6 4 2 3 4 3 4 5 7 9 8 6 2 4 3 4 3 4 5 5 6 7 8 8 10 11 12 12 13 14 14 15 15
7 7 8 6 6 6 6 5 5 6 6 4 3 2 2 3 3 5 9 13 12 7 4 4 5 5 4 4 6 7 6 7 7 8 9 10 11 13 12 13 14 14 12
7 8 6 5 6 6 7 6 5 5 5 3 3 4 5 7 8 10 16 19 18 9 5 7 7 7 6 6 6 7 7 6 7 7 7 8 10 11 13 13 14 14 14
6 6 6 5 5 5 5 9 7 7 5 4 4 4 2 3 4 9 19 29 27 17 7 7 8 9 8 8 8 7 6 5 6 6 6 7 9 11 12 12 13 13 14
5 5 4 4 5 5 5 7 9 6 5 4 5 4 2 1 2 7 21 24 29 23 9 8 9 11 9 9 9 8 7 5 4 4 5 4 6 9 10 11 12 10 10
4 4 4 4 4 4 5 6 7 6 6 6 1 2 5 6 1 11 11 26 30 20 10 9 13 11 9 8 10 7 6 6 5 4 4 4 5 8 9 9 9 9 9
3 4 5 3 4 4 4 5 4 4 6 8 4 2 6 7 6 28 24 6 23 6 11 11 9 11 13 9 9 8 7 8 6 4 3 3 6 8 8 9 9 8 8
4 5 6 4 4 4 4 4 4 5 5 5 10 6 2 9 11 10 14 16 6 9 12 12 12 9 9 9 9 8 9 8 7 5 3 4 7 8 9 11 11 11 11
7 8 8 5 5 7 8 8 8 4 4 5 13 7 7 5 13 16 22 30 12 14 12 10 9 10 10 7 8 14 10 8 7 5 4 4 8 9 10 9 9 9 9
7 7 7 8 8 10 12 10 9 9 9 8 10 9 6 10 14 23 28 22 17 19 14 10 10 8 8 8 10 8 7 6 4 4 2 4 8 8 8 8 7 7 7
8 7 7 8 9 11 11 8 10 11 10 10 9 7 6 7 9 21 16 20 11 9 11 12 13 9 9 9 9 6 5 6 4 3 1 2 4 4 5 6 6 6 7
8 7 6 7 8 8 8 8 8 9 10 10 9 6 5 5 8 6 3 8 4 6 10 10 9 8 7 9 8 5 6 5 4 2 1 2 3 3 5 5 6 7 7
8 8 6 5 6 6 5 6 7 8 10 10 9 9 4 3 3 1 5 3 2 4 2 3 5 6 7 10 6 4 6 5 2 1 1 3 4 4 5 6 7 8 8
7 6 7 5 5 5 4 4 5 7 8 8 8 8 6 3 2 1 6 3 6 8 4 5 7 9 9 7 4 3 5 6 3 2 1 3 4 5 5 7 7 8 8
8 8 7 5 3 4 3 3 4 5 5 6 6 6 5 3 1 1 2 3 9 8 8 6 6 5 5 6 6 3 4 5 2 2 2 3 4 5 6 7 8 8 9
13 11 9 8 5 4 3 2 4 4 4 5 6 6 5 6 1 1 2 3 5 7 8 7 6 5 3 4 5 4 5 5 3 2 3 4 5 6 7 8 8 9 10
15 13 11 10 8 5 5 3 3 2 3 5 6 9 10 9 8 3 2 3 8 8 8 6 5 4 3 4 5 6 5 6 4 4 4 5 6 7 8 9 9 10 10
21 18 15 14 11 8 7 6 4 2 1 2 4 6 8 10 11 10 7 5 6 8 8 7 5 4 4 3 4 6 6 6 5 4 5 6 7 8 9 10 11 11 11
23 22 20 18 16 13 10 9 7 5 4 2 2 4 5 7 7 7 6 5 5 6 7 7 5 4 4 3 3 5 5 5 7 6 7 9 9 9 10 10 11 11 12
25 24 22 20 19 16 13 12 11 10 8 5 4 2 4 4 5 6 3 5 6 7 6 6 5 5 4 4 3 5 7 7 7 8 8 10 11 11 11 11 12 13 13
26 25 24 22 20 19 17 16 16 15 13 11 8 5 4 4 4 4 5 4 4 5 5 6 6 6 5 5 5 5 8 10 10 11 11 11 12 13 12 12 13 13 14
28 27 26 24 23 22 20 19 20 18 17 15 12 10 8 6 5 5 5 4 4 5 5 6 6 6 8 10 10 9 13 15 15 14 13 14 14 14 14 14 14 15 15
28 27 27 26 25 24 22 19 18 18 18 18 16 13 11 10 9 7 7 6 7 6 7 8 8 7 7 11 10 14 15 17 14 17 16 15 15 15 15 15 15 15 16
29 30 28 26 25 25 24 23 22 23 23 23 21 18 15 14 13 12 10 9 9 10 9 8 9 9 10 11 13 14 14 14 19 19 19 18 17 17 16 16 16 16 17
26 28 29 25 25 25 26 25 24 24 24 22 21 20 19 17 16 15 15 15 13 13 13 13 12 11 12 13 15 15 15 16 16 18 21 20 19 18 18 17 17 17 18
22 22 23 23 24 24 25 26 25 24 24 23 23 23 22 21 19 20 18 18 18 16 15 14 14 14 13 14 15 15 17 18 20 20 20 19 19 20 20 19 18 18 18
Wind_Direction
70 75 105 94 77 69 73 51 19 9 1 13 29 4 340 322 307 293 279 265 256 252 217 132 121 110 89 65 61 68 63 66 66 69 72 74 76 78 80 81 81 81 79
46 94 104 82 58 52 40 53 25 359 355 16 34 39 41 351 319 292 271 258 252 242 201 157 134 123 111 91 79 79 75 77 75 77 77 76 76 77 79 81 81 82 81
50 93 90 74 63 56 20 20 15 3 4 28 14 14 342 318 312 298 275 256 248 240 195 149 139 130 119 106 96 90 89 89 86 84 82 78 77 80 80 77 78 78 77
55 81 83 78 58 55 27 352 2 345 356 2 341 344 7 325 306 313 271 245 241 245 209 156 139 129 119 111 104 102 104 109 100 98 87 83 81 82 81 79 77 76 75
71 82 62 55 63 45 25 355 352 352 1 354 349 354 102 158 231 298 259 255 241 240 213 158 138 131 118 110 105 109 115 133 130 117 97 94 86 83 81 78 77 73 70
35 51 33 57 68 42 31 8 355 359 355 340 28 0 151 160 223 281 294 248 251 239 205 160 126 122 118 106 103 102 119 157 157 146 112 97 88 83 80 74 72 71 67
11 13 11 34 57 53 42 17 13 9 348 338 354 351 158 169 173 192 253 226 153 172 133 126 118 102 103 117 97 153 160 176 165 151 139 97 89 82 77 73 70 66 63
339 347 354 15 51 64 60 30 17 3 355 3 333 340 323 167 173 277 257 233 127 133 122 116 107 98 101 106 121 132 163 155 160 159 133 97 86 82 76 74 71 67 64
322 326 339 7 25 17 4 1 2 16 13 11 326 336 336 322 300 283 264 195 152 134 133 120 114 102 106 128 129 187 173 155 153 150 123 88 81 78 74 68 65 58 53
310 319 339 344 352 340 337 347 13 14 5 16 348 345 345 309 308 302 263 175 176 138 129 116 112 123 93 152 173 165 156 165 172 184 170 78 71 69 64 56 45 40 38
295 304 323 332 334 334 343 11 21 31 40 20 5 355 358 331 350 19 84 154 132 123 114 116 102 105 118 179 181 168 172 197 195 215 221 74 57 47 37 33 25 18 14
277 289 303 321 328 341 347 5 16 21 10 5 12 350 328 318 14 46 193 133 128 88 106 112 105 106 139 187 185 176 201 201 212 219 208 53 23 356 4 360 350 346 342
273 282 289 314 324 336 353 1 9 12 24 25 36 49 15 320 354 337 216 300 241 224 124 129 188 165 141 196 188 177 199 201 202 223 54 44 29 13 355 348 338 345 342
255 264 280 292 315 319 337 343 1 9 27 47 56 56 52 360 343 291 237 273 240 241 214 179 202 200 195 200 158 160 197 208 218 241 334 5 359 355 346 336 339 340 343
249 258 260 269 294 297 320 345 354 10 25 45 49 41 44 24 28 197 222 229 234 221 210 200 198 192 189 196 210 177 204 213 210 262 322 356 344 343 340 335 339 346 346
252 250 253 258 259 264 269 299 327 347 39 46 45 54 51 69 59 248 206 215 196 200 198 200 191 185 160 162 197 206 217 225 235 261 306 331 344 344 341 338 340 344 344
244 247 246 248 248 238 253 262 296 350 67 67 61 72 79 82 90 123 188 188 201 184 194 184 171 187 157 178 201 215 227 236 247 265 288 311 332 335 335 333 335 339 342
255 245 249 249 241 239 242 248 251 224 145 85 78 72 78 85 91 99 116 143 168 192 199 202 183 174 169 149 207 229 235 245 264 284 295 295 311 317 330 330 328 333 335
253 250 248 246 241 241 236 244 244 237 231 207 123 98 92 90 91 101 106 120 169 179 200 204 203 197 185 188 208 236 249 265 270 285 291 290 299 307 315 323 324 326 330
253 249 246 245 241 240 239 242 247 245 242 235 223 180 130 115 111 107 116 121 130 144 181 202 190 216 201 188 205 243 264 274 282 286 293 287 292 301 307 309 312 319 324
252 247 243 239 236 235 237 236 242 241 240 241 239 217 191 156 144 136 126 135 176 166 173 187 184 176 215 192 231 269 278 280 283 281 290 292 290 292 297 303 306 311 314
256 247 241 237 232 235 236 240 245 240 244 241 238 237 230 208 191 178 170 175 182 181 180 180 189 217 236 244 254 262 268 274 278 280 284 286 289 294 298 302 305 307 310
261 251 242 236 231 233 233 236 241 241 242 241 239 238 237 238 234 228 221 218 223 218 213 227 225 231 222 257 252 275 274 275 273 279 284 289 290 294 294 300 304 307 308
268 261 250 240 233 232 229 233 230 234 235 242 238 239 239 243 243 244 239 233 235 238 228 226 240 249 247 249 260 281 292 285 275 275 283 284 289 292 293 298 303 304 304
279 268 255 239 234 232 231 233 233 237 240 238 237 235 241 243 246 244 246 246 242 243 243 244 242 251 254 255 264 272 282 285 288 285 284 284 286 290 291 296 299 302 303
287 279 265 237 235 231 232 233 234 235 236 236 237 238 242 246 250 251 248 250 249 249 248 246 249 255 258 262 269 276 279 280 284 288 290 290 291 289 291 294 297 299 303